Weather History for Cavalier, ND

Change the Weather History Date:

Tuesday, February 12, 2013

  Actual Average (KGAF) Record (KGAF)
Temperature  
Mean Temperature 18 °F -  
Max Temperature 35 °F 19 °F 42 °F (1977)
Min Temperature 1 °F 1 °F -27 °F (1955)
Degree Days  
Heating Degree Days 47    
Moisture  
Dew Point 17 °F    
Average Humidity 80    
Maximum Humidity 100    
Minimum Humidity 64    
Precipitation  
Precipitation 0.00 in - - ()
Sea Level Pressure  
Sea Level Pressure 29.72 in    
Wind  
Wind Speed 10 mph (WSW)    
Max Wind Speed 17 mph    
Max Gust Speed 26 mph    
Visibility 10 miles    
Events      
Averages and records for this station are not official NWS values.
T = Trace of Precipitation, MM = Missing Value Source: NWS Daily Summary

Daily Weather History Graph

Daily Weather History Graph

Search for Another Location

Airport:

Trip Planner

Search our weather history database for the weather conditions in past years. The results will help you decide how hot, cold, wet, or windy it might be!

Date:

Astronomy

Feb. 12, 2013 Rise Set
Actual Time 7:43 AM CST 5:47 PM CST
Civil Twilight 7:10 AM CST 6:19 PM CST
Nautical Twilight 6:33 AM CST 6:56 PM CST
Astronomical Twilight 5:56 AM CST 7:33 PM CST
Moon 8:23 AM CST (2/12) 9:10 PM CST (2/12)
Length of Visible Light 11h 09m
Length of Day
10h 04m
Waxing Crescent, 7% of the Moon is Illuminated
Feb 12
Waxing Crescent
Feb 17
First Quarter
Feb 25
Full
Mar 4
Last Quarter
Mar 11
New

Hourly Weather History & Observations

Time (CST) Temp. Windchill Dew Point Humidity Pressure Visibility Wind Dir Wind Speed Gust Speed Precip Events Conditions
12:15 AM 15.8 °F 2.1 °F 14.0 °F 93% 29.79 in 10.0 mi South 12.7 mph - N/A   Mostly Cloudy
12:35 AM 17.6 °F 3.7 °F 14.0 °F 86% 29.78 in 10.0 mi South 13.8 mph - N/A   Mostly Cloudy
12:55 AM 15.8 °F 2.7 °F 14.0 °F 93% 29.78 in 10.0 mi South 11.5 mph - N/A   Mostly Cloudy
1:15 AM 15.8 °F 2.1 °F 12.2 °F 86% 29.76 in 10.0 mi SSW 12.7 mph - N/A   Partly Cloudy
1:35 AM 17.6 °F 4.3 °F 14.0 °F 86% 29.76 in 10.0 mi South 12.7 mph - N/A   Scattered Clouds
1:55 AM 17.6 °F 5.7 °F 14.0 °F 86% 29.75 in 8.0 mi South 10.4 mph - N/A   Mostly Cloudy
2:15 AM 15.8 °F 5.1 °F 14.0 °F 93% 29.76 in 9.0 mi South 8.1 mph - N/A   Partly Cloudy
2:35 AM 15.8 °F 8.6 °F 14.0 °F 93% 29.76 in 9.0 mi South 4.6 mph - N/A   Clear
2:55 AM 17.6 °F 6.4 °F 14.0 °F 86% 29.75 in 10.0 mi SSW 9.2 mph - N/A   Scattered Clouds
3:15 AM 17.6 °F 12.3 °F 14.0 °F 86% 29.74 in 10.0 mi SE 3.5 mph - N/A   Mostly Cloudy
3:35 AM 17.6 °F 6.4 °F 14.0 °F 86% 29.73 in 10.0 mi SSW 9.2 mph - N/A   Mostly Cloudy
3:55 AM 15.8 °F 7.2 °F 12.2 °F 86% 29.73 in 10.0 mi SSW 5.8 mph - N/A   Scattered Clouds
4:15 AM 15.8 °F - 12.2 °F 86% 29.73 in 10.0 mi Calm Calm - N/A   Clear
4:35 AM 14.0 °F - 10.4 °F 86% 29.73 in 10.0 mi Calm Calm - N/A   Clear
4:55 AM 10.4 °F 2.2 °F 8.6 °F 92% 29.73 in 10.0 mi WSW 4.6 mph - N/A   Clear
5:15 AM 12.2 °F 6.1 °F 8.6 °F 85% 29.73 in 10.0 mi SSW 3.5 mph - N/A   Clear
5:35 AM 10.4 °F 4.0 °F 8.6 °F 92% 29.74 in 10.0 mi WSW 3.5 mph - N/A   Clear
5:55 AM 10.4 °F - 8.6 °F 92% 29.74 in 10.0 mi Calm Calm - N/A   Clear
6:15 AM 8.6 °F 2.0 °F 5.0 °F 85% 29.74 in 10.0 mi SSW 3.5 mph - N/A   Clear
6:35 AM 6.8 °F -2.0 °F 6.8 °F 100% 29.74 in 10.0 mi SSW 4.6 mph - N/A   Clear
6:55 AM 5.0 °F -2.1 °F 1.4 °F 85% 29.75 in 10.0 mi WSW 3.5 mph - N/A   Clear
7:15 AM 3.2 °F -6.2 °F 1.4 °F 92% 29.75 in 10.0 mi WSW 4.6 mph - N/A   Clear
7:35 AM 3.2 °F -4.2 °F 1.4 °F 92% 29.75 in 10.0 mi SW 3.5 mph - N/A   Clear
7:55 AM 1.4 °F -6.2 °F -0.4 °F 92% 29.75 in 10.0 mi SW 3.5 mph - N/A   Clear
8:15 AM 1.4 °F -6.2 °F -0.4 °F 92% 29.74 in 10.0 mi SW 3.5 mph - N/A   Clear
8:35 AM 5.0 °F -4.1 °F 1.4 °F 85% 29.73 in 10.0 mi SW 4.6 mph - N/A   Clear
8:55 AM 8.6 °F 0.1 °F 6.8 °F 92% 29.74 in 10.0 mi SW 4.6 mph - N/A   Clear
9:15 AM 14.0 °F 8.2 °F 8.6 °F 79% 29.74 in 10.0 mi SW 3.5 mph - N/A   Clear
9:35 AM 15.8 °F 8.6 °F 10.4 °F 79% 29.74 in 10.0 mi WSW 4.6 mph - N/A   Clear
9:55 AM 17.6 °F 9.3 °F 10.4 °F 73% 29.74 in 10.0 mi WSW 5.8 mph - N/A   Clear
10:15 AM 24.8 °F - 14.0 °F 64% 29.74 in 10.0 mi Calm Calm - N/A   Clear
10:35 AM 24.8 °F 13.4 °F 15.8 °F 69% 29.74 in 10.0 mi West 12.7 mph - N/A   Clear
10:55 AM 24.8 °F 13.4 °F 17.6 °F 74% 29.74 in 10.0 mi West 12.7 mph - N/A   Clear
11:15 AM 26.6 °F 16.2 °F 15.8 °F 64% 29.74 in 10.0 mi WSW 11.5 mph - N/A   Clear
11:35 AM 26.6 °F 16.8 °F 17.6 °F 69% 29.74 in 10.0 mi West 10.4 mph - N/A   Clear
11:55 AM 28.4 °F 18.5 °F 19.4 °F 69% 29.73 in 10.0 mi West 11.5 mph - N/A   Partly Cloudy
12:15 PM 30.2 °F 19.8 °F 21.2 °F 69% 29.74 in 10.0 mi NW 13.8 mph 23.0 mph N/A   Mostly Cloudy
12:35 PM 30.2 °F 20.8 °F 19.4 °F 64% 29.74 in 10.0 mi WNW 11.5 mph - N/A   Mostly Cloudy
12:55 PM 32.0 °F 24.2 °F 23.0 °F 69% 29.74 in 10.0 mi NW 9.2 mph - N/A   Mostly Cloudy
1:15 PM 32.0 °F 22.1 °F 23.0 °F 69% 29.72 in 10.0 mi West 13.8 mph - N/A   Partly Cloudy
1:35 PM 32.0 °F 21.6 °F 23.0 °F 69% 29.72 in 10.0 mi West 15.0 mph 19.6 mph N/A   Partly Cloudy
1:55 PM 32.0 °F 20.8 °F 23.0 °F 69% 29.72 in 10.0 mi West 17.3 mph - N/A   Clear
2:15 PM 33.8 °F 23.9 °F 24.8 °F 70% 29.72 in 10.0 mi WNW 15.0 mph - N/A   Partly Cloudy
2:35 PM 35.6 °F 25.5 °F 24.8 °F 65% 29.71 in 10.0 mi WNW 17.3 mph 26.5 mph N/A   Partly Cloudy
2:55 PM 35.6 °F 25.9 °F 26.6 °F 70% 29.71 in 10.0 mi WNW 16.1 mph 26.5 mph N/A   Clear
3:15 PM 33.8 °F 24.3 °F 24.8 °F 70% 29.71 in 10.0 mi West 13.8 mph - N/A   Clear
3:35 PM 32.0 °F 21.6 °F 24.8 °F 75% 29.71 in 10.0 mi West 15.0 mph 21.9 mph N/A   Clear
3:55 PM 32.0 °F 22.5 °F 24.8 °F 75% 29.71 in 10.0 mi West 12.7 mph - N/A   Partly Cloudy
4:15 PM 32.0 °F 21.6 °F 24.8 °F 75% 29.71 in 10.0 mi West 15.0 mph - N/A   Mostly Cloudy
4:35 PM 32.0 °F 21.2 °F 24.8 °F 75% 29.71 in 10.0 mi West 16.1 mph - N/A   Mostly Cloudy
4:55 PM 32.0 °F 22.1 °F 24.8 °F 75% 29.71 in 10.0 mi West 13.8 mph - N/A   Scattered Clouds
5:15 PM 32.0 °F 21.6 °F 24.8 °F 75% 29.71 in 10.0 mi West 15.0 mph - N/A   Mostly Cloudy
5:35 PM 32.0 °F 21.6 °F 24.8 °F 75% 29.71 in 10.0 mi West 15.0 mph - N/A   Mostly Cloudy
5:55 PM 32.0 °F 21.6 °F 24.8 °F 75% 29.71 in 10.0 mi West 15.0 mph - N/A   Overcast
6:15 PM 32.0 °F 21.2 °F 24.8 °F 75% 29.71 in 10.0 mi West 16.1 mph - N/A   Overcast
6:35 PM 32.0 °F 21.6 °F 24.8 °F 75% 29.71 in 10.0 mi West 15.0 mph - N/A   Overcast
6:55 PM 32.0 °F 20.8 °F 24.8 °F 75% 29.71 in 10.0 mi West 17.3 mph - N/A   Overcast
7:15 PM 32.0 °F 20.8 °F 24.8 °F 75% 29.70 in 10.0 mi West 17.3 mph - N/A   Mostly Cloudy
7:35 PM 32.0 °F 22.1 °F 24.8 °F 75% 29.70 in 10.0 mi West 13.8 mph - N/A   Scattered Clouds
7:55 PM 32.0 °F 22.1 °F 24.8 °F 75% 29.70 in 10.0 mi West 13.8 mph - N/A   Partly Cloudy
8:35 PM 30.2 °F 19.3 °F 23.0 °F 75% 29.70 in 10.0 mi West 15.0 mph - N/A   Clear
8:55 PM 28.4 °F 16.2 °F 23.0 °F 80% 29.69 in 10.0 mi West 17.3 mph 21.9 mph N/A   Scattered Clouds
9:15 PM 28.4 °F 16.6 °F 23.0 °F 80% 29.69 in 10.0 mi West 16.1 mph - N/A   Clear
9:35 PM 28.4 °F 17.5 °F 23.0 °F 80% 29.69 in 10.0 mi West 13.8 mph - N/A   Clear
9:55 PM 28.4 °F 17.5 °F 23.0 °F 80% 29.69 in 10.0 mi West 13.8 mph - N/A   Clear
10:15 PM 28.4 °F 17.5 °F 23.0 °F 80% 29.68 in 10.0 mi West 13.8 mph - N/A   Clear
10:35 PM 28.4 °F 18.0 °F 23.0 °F 80% 29.67 in 10.0 mi West 12.7 mph - N/A   Clear
10:55 PM 28.4 °F 17.0 °F 23.0 °F 80% 29.67 in 10.0 mi West 15.0 mph - N/A   Clear
11:15 PM 30.2 °F 19.3 °F 24.8 °F 80% 29.66 in 10.0 mi West 15.0 mph - N/A   Clear
11:35 PM 28.4 °F 17.5 °F 24.8 °F 86% 29.67 in 10.0 mi West 13.8 mph - N/A   Clear
11:55 PM 28.4 °F 19.7 °F 24.8 °F 86% 29.67 in 10.0 mi WNW 9.2 mph - N/A   Clear